Location: Airon-Notre-Dame
(50.4360°N, 1.6596°E)
Time: 17:08:34
(UTC+00:00)

Daily predictions for brighter satellites

Satellite Brightness Start Highest point End
(mag) Time Altitude Azimuth Time Altitude Azimuth Time Altitude Azimuth
AQUARIUS 4.4 16:40:33 10° SE 16:44:50 46° ENE 16:49:09 10° N
Cosmos 1867 4.3 16:41:22 10° S 16:46:17 36° ESE 16:51:15 10° NE
ASTEX 1 3.5 16:41:23 10° N 16:46:23 64° E 16:51:20 10° S
CENTAUR R/B 3.8 16:41:31 10° W 16:47:34 35° NNW 16:54:31 10° NE
Cosmos 1743 Rocket 3.7 16:43:49 10° N 16:48:05 52° ENE 16:52:21 10° SSE
Cosmos 1656 Rocket 3.9 16:46:52 10° SW 16:52:23 76° WNW 16:57:52 10° NNE
Cosmos 1340 Rocket 2.8 16:51:12 10° S 16:55:13 84° ESE 16:59:19 10° NNE
Okean O Rocket 2.9 16:52:19 10° S 16:56:34 46° W 17:00:49 10° NNW
Cosmos 1825 2.2 16:54:35 10° N 16:58:24 85° W 17:02:11 10° S
ALOS 3.7 16:53:58 10° S 16:58:25 43° W 17:02:53 10° NNW
GEOS 3 Rocket 4.0 16:54:00 10° NE 16:59:02 47° SE 17:04:06 10° SSW
NOAA 12 4.4 16:54:36 10° SE 16:59:41 47° ENE 17:04:48 10° N
Cosmos 2123 Rocket 4.0 16:54:51 10° S 17:01:03 77° E 17:07:15 10° NNE
CZ-4 R/B 2.6 16:57:52 10° ESE 17:01:06 22° ENE 17:04:17 10° NNE
ATLAS 3B R/B 3.8 16:57:40 10° W 17:03:29 31° NNW 17:09:21 10° NE
Cosmos 1869 4.5 17:01:43 10° SE 17:04:49 22° E 17:07:55 10° NE
Cosmos 1725 Rocket 4.2 16:59:53 10° N 17:06:16 82° W 17:12:34 10° S
SMAP 3.0 17:02:35 10° SSE 17:07:14 80° ENE 17:11:55 10° NNW
Cosmos 2219 3.2 17:02:14 10° NNW 17:07:52 68° ENE 17:13:27 10° SE
Cosmos 1408 Rocket 4.5 17:04:13 10° NNW 17:08:32 54° W 17:12:51 10° S
Cosmos 1238 Rocket 3.0 17:07:07 10° N 17:12:00 68° ENE 17:15:57 10° SSE
Cosmos 1500 Rocket 3.5 17:09:04 10° N 17:13:31 84° E 17:17:51 10° S
Cosmos 2369 Rocket 3.7 17:10:06 10° WSW 17:15:02 31° NW 17:19:59 10° NNE
Cosmos 1939 Rocket 4.5 17:17:43 15° E 17:18:55 17° ENE 17:21:33 10° NNE
Cosmos 1633 Rocket 4.1 17:15:49 10° NNE 17:19:23 23° ENE 17:22:56 10° ESE
Cosmos 1633 3.6 17:18:29 10° NNE 17:21:33 24° ENE 17:24:35 10° SE
TELKOM 3 3.6 17:22:57 10° W 17:25:03 42° SSW 17:26:21 18° SE
COSMO-SKYMED 1 3.4 17:21:36 10° NE 17:25:25 29° E 17:29:12 10° SSE
Cosmos 783 Rocket 4.5 17:20:57 10° SSW 17:26:15 79° ESE 17:31:36 10° NNE
Elektron 3 4.1 17:23:47 10° WSW 17:27:01 59° NW 17:29:07 17° NE
COBE Rocket 3.9 17:23:12 10° NNE 17:28:01 56° E 17:32:40 10° S
CSL-04 Rocket 4.1 17:23:26 10° SE 17:28:22 39° ENE 17:33:16 10° N
FengYun 1-2 T 4.3 17:23:31 10° SE 17:28:52 53° ENE 17:34:13 10° N
Cosmos 2344 3.7 17:21:30 10° SW 17:29:01 88° NW 17:37:35 10° NE
Cosmos 1666 Rocket 4.2 17:25:09 10° N 17:29:09 32° ENE 17:33:05 10° SE
Cosmos 1455 3.9 17:25:46 10° SW 17:29:14 34° WNW 17:32:43 10° N
Cosmos 1607 3.9 17:23:18 10° NW 17:29:32 81° NE 17:35:49 10° SE
Cosmos 2227 Rocket 2.2 17:24:40 10° NNW 17:30:20 65° ENE 17:35:58 10° SE
Cosmos 2297 Rocket 2.1 17:25:09 10° NNW 17:30:50 69° ENE 17:36:28 10° SE
Sich 1 3.2 17:31:24 10° N 17:35:37 48° ENE 17:39:50 10° SSE
Cosmos 2084 3.9 17:34:31 10° NW 17:38:49 62° SW 17:42:59 10° SSE
Meteor 2-2 Rocket 4.3 17:33:48 10° S 17:39:37 67° E 17:45:20 10° NNE
YAOGAN 6 2.6 17:36:58 10° SSE 17:40:20 48° ENE 17:43:44 10° N
USA 215 3.3 17:37:19 16° E 17:42:37 65° NNE 17:49:06 10° WNW
NOSS 7 (D) 3.7 17:40:08 10° SW 17:43:03 82° SE 17:44:02 36° NE
H-2A R/B 3.8 17:40:45 10° S 17:44:30 48° W 17:48:14 10° NNW
Envisat 3.0 17:41:41 10° SSE 17:46:46 88° ENE 17:51:54 10° NNW
USA 229 DEB 3.9 17:43:38 10° SSW 17:49:56 50° ESE 17:54:26 20° NE
USA 229 3.9 17:43:47 10° SSW 17:50:03 50° ESE 17:54:29 21° ENE
Cosmos 1862 3.6 17:46:58 10° N 17:50:46 42° ENE 17:54:34 10° SSE
Cosmos 2034 Rocket 4.2 17:45:05 10° N 17:51:13 48° ENE 17:57:20 10° SSE
Meteor 1-27 4.4 17:46:51 10° SSW 17:52:30 78° WNW 17:58:17 10° N
Cosmos 1943 Rocket 4.4 17:50:20 10° WNW 17:54:15 19° NW 17:58:13 10° N
NOSS 3-1 (A) 4.1 17:50:33 10° S 17:55:24 31° ESE 17:57:11 26° E
Genesis I 3.1 17:52:25 10° SW 17:56:26 78° SE 17:58:14 31° NE
NOSS 3-1 (C) 3.6 17:51:19 10° SSW 17:56:37 47° ESE 17:59:56 25° ENE
Cosmos 2082 3.6 17:51:02 10° NNW 17:56:39 65° ENE 18:02:14 10° SE
Cosmos 2263 Rocket 3.4 17:52:29 10° NNW 17:56:42 21° NE 17:57:19 21° NE
YAOGAN 1 2.5 17:53:03 10° SSE 17:57:18 59° ENE 18:01:35 10° N
Cosmos 1470 Rocket 4.3 17:55:49 10° N 17:59:34 32° ENE 17:59:34 32° ENE
Okean-O 3.5 17:56:50 10° S 18:01:08 51° W 18:05:30 10° NNW
Cosmos 2221 3.6 17:59:40 10° SSW 18:03:48 46° WNW 18:08:01 10° N
SeaSat 1 3.7 18:02:43 10° S 18:07:23 42° WSW 18:12:04 10° NW
Meteor 2-11 Rocket 4.4 18:02:26 10° N 18:08:29 59° ENE 18:14:31 10° SSE
USA 116 4.2 18:09:07 26° NE 18:11:28 54° E 18:16:15 10° S
Cosmos 1697 Rocket 3.2 18:06:26 10° S 18:11:32 36° ESE 18:12:05 35° E
Cosmos 1356 Rocket 3.3 18:07:53 10° S 18:12:02 85° E 18:15:46 13° NNE
Geosat 4.2 18:08:09 13° NNE 18:12:40 69° NW 18:17:39 10° SW
SKYMED 2 3.4 18:09:22 10° NNE 18:13:45 83° ESE 18:18:06 10° SSW
Tsikada Rocket 4.4 18:08:30 10° SSE 18:14:18 39° E 18:20:11 10° NNE
CZ-3B R/B 3.4 18:13:20 10° W 18:15:42 42° NNW 18:15:42 42° NNW
ATLAS 5 CENTAUR R/B 2.8 18:11:29 10° NW 18:17:06 61° SW 18:23:33 10° SSE
Lacrosse 4 Rocket 2.8 18:13:31 10° S 18:15:35 23° SSE 18:15:35 23° SSE
Cosmos 1680 Rocket 4.1 18:16:18 10° S 18:20:18 36° SE 18:20:18 36° SE
H-2A R/B 3.6 18:31:13 22° NNE 18:31:13 22° NNE 18:33:34 10° N
Ariane Rocket 3.0 18:28:22 45° ESE 18:29:40 59° ENE 18:34:41 10° N
Cosmos 1867 4.2 18:24:23 10° WSW 18:29:44 53° NW 18:32:48 25° NNE
CZ-4 R/B 2.5 18:31:51 10° S 18:35:53 45° W 18:39:52 10° NNW
Cosmos 724 4.1 18:30:43 10° NW 18:36:37 78° NE 18:38:19 48° SE
GEOS 3 Rocket 4.4 18:34:18 24° NNE 18:37:06 48° NW 18:42:08 10° WSW
CENTAUR R/B 4.0 18:34:02 10° NW 18:40:23 32° N 18:42:52 27° NE
Cosmos 1464 Rocket 4.4 18:35:16 10° NNW 18:41:22 62° W 18:47:22 10° S
NOAA 11 4.1 18:36:22 10° SSE 18:41:48 86° WSW 18:47:17 10° NNW
MOS 1 4.3 18:43:14 56° ENE 18:43:14 56° ENE 18:48:45 10° N
CZ-2D R/B 3.7 18:44:40 58° NW 18:44:40 58° NW 18:47:56 10° NNW
Cosmos 923 Rocket 3.8 18:39:37 10° SSW 18:44:49 74° ESE 18:45:14 70° ENE
Cosmos 2056 Rocket 3.5 18:43:31 10° NNW 18:48:06 61° NNE 18:48:06 61° NNE
Cosmos 1624 Rocket 3.9 18:43:28 10° NNW 18:48:42 69° NE 18:48:42 69° NE
Cosmos 1656 3.7 18:44:58 10° SSW 18:50:32 78° WNW 18:52:28 42° NNE
Cosmos 1939 Rocket 3.3 18:53:38 64° WNW 18:53:38 64° WNW 18:57:31 10° NNW
ATLAS 3B R/B 3.8 18:50:38 10° NW 18:56:11 27° N 18:57:16 26° NNE
Cosmos 1633 Rocket 4.2 18:53:11 10° NNW 18:57:22 43° W 19:01:33 10° SSW
COSMO-SKYMED 1 4.1 18:57:39 10° N 19:01:38 35° WNW 19:05:35 10° SW
Cosmos 2227 Rocket 4.3 19:09:25 10° NW 19:13:57 25° WSW 19:18:28 10° SSW
Cosmos 2297 Rocket 4.4 19:10:01 10° NW 19:14:22 23° WSW 19:18:42 10° SSW
Cosmos 1980 Rocket 3.8 19:08:58 10° S 19:10:50 21° S 19:10:50 21° S
Gblst 52 Del rocket 4.3 19:08:16 10° W 19:15:00 81° N 19:15:03 80° N
USA 215 3.5 19:24:41 55° S 19:25:43 62° SW 19:32:14 10° WNW
BREEZE-M DEB (TANK) 4.5 19:25:42 10° W 19:28:14 25° W 19:28:14 25° W
Cosmos 2369 4.1 19:25:23 10° SW 19:30:29 60° W 19:30:29 60° W
USA 229 DEB 4.2 19:34:25 10° WSW 19:40:55 53° NW 19:41:54 49° N
USA 229 4.2 19:34:32 10° WSW 19:41:01 53° NW 19:41:57 49° N
Cosmos 2263 Rocket 3.4 19:35:55 10° NNW 19:39:01 34° NNW 19:39:01 34° NNW
NOSS 3-1 (A) 3.9 19:40:04 10° WSW 19:44:39 55° W 19:44:39 55° W
NOSS 3-1 (C) 4.1 19:41:50 10° WSW 19:47:21 50° NW 19:47:21 50° NW
Cosmos 1697 Rocket 3.9 19:49:56 10° SW 19:53:53 38° W 19:53:53 38° W
H-2A R/B 4.3 20:11:50 20° NNW 20:11:50 20° NNW 20:13:31 10° NNW
CENTAUR R/B 4.0 20:25:18 10° NW 20:30:03 39° NNW 20:30:03 39° NNW
ATLAS 3B R/B 4.4 20:41:57 10° NW 20:44:31 24° NNW 20:44:31 24° NNW
